Regional Weather Roundup
Issued by NWS

Home | Current Version | Previous Version | Text Only | Print | Product List | Glossary On
Versions: 1 2 3 4 5 6 7 8 9 10 11 12 13 14 15 16 17 18 19 20 21 22 23 24 25 26 27 28 29 30 31 32 33 34 35 36 37 38 39 40 41 42 43 44 45 46 47 48 49 50
000
ASUS45 KREV 280410
RWRNV
NEVADA REGIONAL WEATHER ROUNDUP
NATIONAL WEATHER SERVICE RENO NV
800 PM PST THU NOV 27 2014

NOTE: "FAIR" INDICATES FEW OR NO CLOUDS BELOW 12,000 FEET WITH NO
SIGNIFICANT WEATHER AND/OR OBSTRUCTIONS TO VISIBILITY.

NVZ001-003-004-280500-
WESTERN NEVADA

CITY           SKY/WX    TMP DP  RH WIND       PRES   REMARKS
RENO           PTCLDY    56  16  20 NE5       30.11F
CARSON CITY    FAIR      50  18  27 CALM      30.14F
MINDEN         FAIR      52  18  25 N7        30.15
SLIDE MTN        N/A     37  14  38 W45         N/A
PYRAMID LAKE     N/A     64 N/A N/A SW6         N/A
FALLON         MOCLDY    48  18  30 SE12      30.10F
LOVELOCK       CLOUDY    36  20  52 CALM      30.09F
HAWTHORNE      CLEAR     46  19  34 CALM      30.15S
$$

NVZ002-CAZ072-073-280500-
NORTHERN AND CENTRAL SIERRA

CITY           SKY/WX    TMP DP  RH WIND       PRES   REMARKS
S. LAKE TAHOE  CLEAR     51  17  26 VRB5G20   30.20F
TRUCKEE        CLEAR     50  19  29 S7        30.19F
SQUAW VLY 8000 NOT AVBL
SUSANVILLE     CLEAR     39  16  38 W6        30.10S
BLUE CANYON    CLEAR     51  22  31 SE7       30.21S
MAMMOTH LAKES  FAIR      41  10  28 CALM      30.31S
BRIDGEPORT     FAIR      44  16  32 N10       30.23F
$$

NVZ030-031-036-280500-
NORTHERN NEVADA

CITY           SKY/WX    TMP DP  RH WIND       PRES   REMARKS
ELKO           CLOUDY    43  31  62 CALM      30.14F
WINNEMUCCA     CLOUDY    50  24  36 S10       30.07F
WENDOVER       MOCLDY    37  27  65 CALM      30.13F
$$

NVZ035-037-280500-
CENTRAL NEVADA

CITY           SKY/WX    TMP DP  RH WIND       PRES   REMARKS
ELY            CLOUDY    42  13  30 VRB3      30.25F
EUREKA           N/A     38  24  57 S12       30.21F
$$

NVZ013-014-280500-
SOUTH CENTRAL NEVADA

CITY           SKY/WX    TMP DP  RH WIND       PRES   REMARKS
TONOPAH        MOCLDY    36  14  40 N13       30.25S
$$

NVZ017-020-022-280500-
SOUTHERN NEVADA

CITY           SKY/WX    TMP DP  RH WIND       PRES   REMARKS
LAS VEGAS      MOCLDY    53  21  28 S8        30.13S
N. LAS VEGAS   CLEAR     50  24  36 NW7       30.16S
NELLIS AFB     PTCLDY    47  17  30 NE2       30.17R
HENDERSON      CLEAR     49  23  36 S8        30.19R
MERCURY        PTCLDY    52  15  23 CALM      30.18S
$$


USA.gov is the U.S. government's official web portal to all federal, state and local government web resources and services.